CZ-6A DEB

Satellite information

Favourite Embed

Satellite Type and Status

DEBRISIN ORBIT

Key statistics

Satellite CZ-6A DEB at a glance.

Uptime

494

Days in orbit

Revolutions

≈ 14.3

Per day

Orbit

LEO

Low Earth Orbit

Inclination

89.0

Latest

Satellite identification and parameters

Extended collection of information and parameters for CZ-6A DEB.

Object identification

Identified? True

Debris? True

Object name: CZ-6A DEB

International designator: 2024-140DM

Object number (NORAD): 60708

Object ID (CCSDS): 60708

Country: PEOPLES REPUBLIC OF CHINA (PRC)

Current information (Y/N): Y

RCS size: MEDIUM

Orbital parameters

Period: 100.734 minutes

Inclination: 89.006 deg

SMA: 7171.508 km

Apoapsis: 824.606 km

Periapsis: 762.139 km

RAAN: 295.3724 deg

Eccentricy: 0.00435522

Argument of periapsis: 120.1287 deg

Mean anomaly: 240.4236 deg

Mean motion: 14.29509467 rev/day

Mean motion (dot): 0.00003499 rev/day2

B* drag term: 0.0013504813 1/REarth

Two-line elements (TLE)

Creation date: Dec. 12, 2025, 10:14 a.m.

Reference frame: TEME

Reference center: EARTH

Epoch: Dec. 12, 2025, 6:44 a.m. UTC

TLE line 0: 0 CZ-6A DEB

TLE line 1: 1 60708U 24140DM 25346.28098243 .00003499 00000-0 13505-2 0 9999

TLE line 2: 2 60708 89.0060 295.3724 0043552 120.1287 240.4236 14.29509467 69517

Live tracking on map

Real-time ground track for satellite CZ-6A DEB.

In-orbit conjunctions

A list of the most updated potential collisions computed for object CZ-6A DEB.

Target Orbit TCA Probability of collision Miss distance Type
FENGYUN 1C DEB SSO 2025-04-05 03:44:07 0.0002049705 42.0 (m) DEBRIS
FENGYUN 1C DEB SSO 2025-03-01 07:39:50 0.0001204279 378.0 (m) DEBRIS
CZ-6A DEB LEO 2025-02-26 08:48:09 0.0001408599 212.0 (m) DEBRIS
COSMOS 2251 DEB LEO 2025-02-04 03:16:46 0.0001484301 780.0 (m) DEBRIS
COSMOS 1818 COOLANT LEO 2024-09-25 21:02:30 0.0003341791 348.0 (m) DEBRIS

Associated space launch

18 Low Earth Orbit communication satellites with Ku, Q and V band payloads for the G60 constellation operated by Shanghai Spacecom Satellite Technology (SSST) with funding backed by the Shanghai local government. Initial constellation will consist of 1296 satellites by 2027 with long term plans to expand it to 12000 satellites.

CZ-6A DEB was lifted into orbit during the mission ‘Long March 6A | G60 Polar Group 01’, on board a Long March 6A space rocket.

The launch took place on Aug. 6, 2024, 6:42 a.m. from Launch Complex 9A.

For more information about the launch, click the button.

Launch to space Long March 6A | G60 Polar Group 01
Long March 6A | G60 Polar Group 01

Agency: N/A

Status: Launch Successful

Launch date: Aug. 6, 2024, 6:42 a.m. UTC

Rocket: Long March 6A

Launch pad: Launch Complex 9A

Location: Taiyuan Satellite Launch Center, People's Republic of China

...

Latest news about this satellite

News about space launch
Brightness of first Chinese broadband constellation satellites alarms astronomers

The first satellites of a Chinese broadband constellation are significantly brighter than those of Western systems, posing a new challenge for astronomers.

News about space launch
Chinese rocket stage breaks up into cloud of more than 700 pieces of space debris

HELSINKI — A Chinese Long March 6A rocket’s upper stage has fragmented into a cloud of over 700 pieces of space debris, adding to concerns about long-term orbital safety. China […]

News about space launch
China's Thousand Sails Megaconstellation Kicks Off with Dangerous Debris Field

China's Thousand Sails Megaconstellation Kicks Off with Dangerous Debris Field


Newsletter sign-up

Weekly statistics, charts and insights to help you stay on top of the space industry.